TimeEST,TemperatureF,Dew PointF,Humidity,Sea Level PressureIn,VisibilityMPH,Wind Direction,Wind SpeedMPH,Gust SpeedMPH,PrecipitationIn,Events,Conditions,WindDirDegrees,DateUTC
12:00 AM,21.2,15.8,80,30.40,25.0,WSW,6.9,-,N/A,,Mostly Cloudy,240,2013-02-22 05:00:00
1:00 AM,21.2,15.8,80,30.41,25.0,SW,4.6,-,N/A,,Overcast,230,2013-02-22 06:00:00
2:00 AM,19.4,15.8,86,30.41,25.0,Calm,Calm,-,N/A,,Overcast,0,2013-02-22 07:00:00
3:00 AM,19.4,15.8,86,30.40,25.0,Calm,Calm,-,N/A,,Overcast,0,2013-02-22 08:00:00
4:00 AM,19.4,14.0,80,30.38,25.0,NNW,2.3,-,N/A,,Mostly Cloudy,340,2013-02-22 09:00:00
5:00 AM,14.0,12.2,93,30.39,25.0,Variable,2.3,-,N/A,,Scattered Clouds,0,2013-02-22 10:00:00
6:00 AM,10.4,8.6,92,30.41,25.0,WNW,2.3,-,N/A,,Partly Cloudy,290,2013-02-22 11:00:00
7:00 AM,15.8,14.0,93,30.45,25.0,WSW,5.8,-,N/A,,Mostly Cloudy,250,2013-02-22 12:00:00
7:41 AM,15.8,14.0,93,30.47,20.0,West,2.3,-,N/A,Snow,Light Snow Showers,260,2013-02-22 12:41:00
8:00 AM,17.6,14.0,86,30.46,20.0,North,3.5,-,N/A,Snow,Light Snow Showers,350,2013-02-22 13:00:00
8:23 AM,17.6,15.8,93,30.46,20.0,NNE,2.3,-,N/A,,Mostly Cloudy,30,2013-02-22 13:23:00
9:00 AM,17.6,15.8,93,30.45,25.0,Calm,Calm,-,N/A,,Mostly Cloudy,0,2013-02-22 14:00:00
10:00 AM,24.8,19.4,80,30.44,20.0,Calm,Calm,-,N/A,,Overcast,0,2013-02-22 15:00:00
11:00 AM,26.6,19.4,74,30.44,20.0,Calm,Calm,-,N/A,,Overcast,0,2013-02-22 16:00:00
12:00 PM,28.4,21.2,74,30.43,20.0,ENE,5.8,-,N/A,,Overcast,70,2013-02-22 17:00:00
1:00 PM,30.2,23.0,75,30.40,20.0,NNE,3.5,-,N/A,,Overcast,30,2013-02-22 18:00:00
2:00 PM,32.0,23.0,69,30.38,20.0,NE,5.8,-,N/A,,Mostly Cloudy,50,2013-02-22 19:00:00
3:00 PM,32.0,23.0,69,30.36,20.0,NE,6.9,-,N/A,,Overcast,50,2013-02-22 20:00:00
4:00 PM,30.2,21.2,69,30.34,15.0,ENE,9.2,-,N/A,,Overcast,70,2013-02-22 21:00:00
5:00 PM,28.4,21.2,74,30.34,20.0,East,9.2,-,N/A,,Overcast,80,2013-02-22 22:00:00
6:00 PM,26.6,19.4,74,30.31,25.0,ENE,5.8,-,N/A,,Mostly Cloudy,70,2013-02-22 23:00:00
7:00 PM,24.8,19.4,80,30.33,25.0,ENE,4.6,-,N/A,,Mostly Cloudy,60,2013-02-23 00:00:00
8:00 PM,24.8,19.4,80,30.30,25.0,NE,4.6,-,N/A,,Overcast,50,2013-02-23 01:00:00
9:00 PM,24.8,19.4,80,30.29,25.0,NE,4.6,-,N/A,,Overcast,50,2013-02-23 02:00:00
10:00 PM,24.8,21.2,86,30.28,25.0,NE,4.6,-,N/A,,Overcast,50,2013-02-23 03:00:00
11:00 PM,24.8,19.4,80,30.26,20.0,ENE,6.9,-,N/A,,Overcast,60,2013-02-23 04:00:00